Regional Weather Roundup
Issued by NWS

Home | Current Version | Previous Version | Graphics & Text | Print | Product List | Glossary On
Versions: 1 2 3 4 5 6 7 8 9 10 11 12 13 14 15 16 17 18 19 20 21 22 23 24 25 26 27 28 29 30 31 32 33 34 35 36 37 38 39 40 41 42 43 44 45 46 47 48 49 50
000
ASUS43 KTOP 300659
RWRKS

WEATHER ROUNDUP FOR KANSAS
NATIONAL WEATHER SERVICE GOODLAND KS
200 AM CDT FRI SEP 30 2016

NOTE:  "FAIR" INDICATES FEW OR NO CLOUDS BELOW 12,000 FEET WITH NO
SIGNIFICANT WEATHER AND/OR OBSTRUCTIONS TO VISIBILITY.

KSZ001>006-013>018-027>032-041>047-300800-
NORTHWEST KANSAS

CITY           SKY/WX    TMP DP  RH WIND       PRES   REMARKS
GOODLAND       CLEAR     48  39  71 S12       30.26F
HAYS           CLEAR     45  36  70 CALM      30.31S
HILL CITY      CLEAR     46  43  89 CALM      30.32S
RUSSELL        CLEAR     49  45  86 SE8       30.30F
$$

KSZ061>065-074>080-084>089-300800-
SOUTHWEST KANSAS

CITY           SKY/WX    TMP DP  RH WIND       PRES   REMARKS
DODGE CITY     CLEAR     49  45  86 S7        30.30F
ELKHART          N/A     52  39  61 S10         N/A
GARDEN CITY    PTCLDY    50  42  74 SE8       30.29S
GREAT BEND     CLEAR     48  39  71 CALM      30.31S
LIBERAL        CLEAR     54  39  58 SE9       30.30F
$$

KSZ066>073-081>083-090>101-300800-
SOUTHEAST KANSAS

CITY           SKY/WX    TMP DP  RH WIND       PRES   REMARKS
CHANUTE        CLEAR     51  48  89 NW5       30.26F
COFFEYVILLE    CLEAR     52  49  89 W5        30.26F
HUTCHINSON     CLEAR     49  47  93 CALM      30.31F
MEDICINE LODGE   N/A     50  47  89 CALM      30.30F
NEWTON         CLEAR     51  48  89 N5        30.30F
PARSONS        CLEAR     47  46  97 CALM      30.27F
WICHITA INTL   PTCLDY    53  50  89 NW5       30.29F
WICHITA JABRA  CLEAR     50  48  93 N5        30.29F
WINFIELD       CLEAR     52  49  89 CALM      30.29F
$$

KSZ007>012-019>026-033>040-048>060-102>105-300800-
NORTHEAST KANSAS

CITY           SKY/WX    TMP DP  RH WIND       PRES   REMARKS
CONCORDIA      CLEAR     49  46  90 CALM      30.31F
EMPORIA        CLEAR     50  48  93 NW5       30.29S
LAWRENCE       CLEAR     50  49  96 W6        30.27F
MANHATTAN      CLEAR     48  46  93 CALM      30.30F
OLATHE IND     CLEAR     52  49  89 NW3       30.27F
OLATHE EXE     CLEAR     55  48  77 N6        30.26F
SALINA         CLEAR     51  46  83 NW3       30.31F
TOPEKA BILLARD CLEAR     50  47  89 CALM      30.28F FOG
TOPEKA FORBES  CLEAR     52  48  86 NW5       30.27F
$$



USA.gov is the U.S. government's official web portal to all federal, state and local government web resources and services.